Location: Peebles
(55.6412°N, 3.1714°W)
Time: 05:22:01
(UTC+00:00)

NOSS 3-2 (C) - Visible Passes

Search period start: 27 January 2022 00:00
Search period end: 06 February 2022 00:00
Orbit: 767 x 1445 km, 63.4° (Epoch: 20 January)

Date Brightness Start Highest point End Pass type
(mag) Time Alt. Az. Time Alt. Az. Time Alt. Az.
27 Jan 4.0 18:08:33 10° W 18:14:29 56° NNW 18:20:12 16° NE visible
27 Jan 4.3 20:00:22 10° WNW 20:06:38 46° N 20:07:39 43° NNE visible
27 Jan 5.2 21:51:39 10° NW 21:55:05 33° NW 21:55:05 33° NW visible
28 Jan 3.8 17:23:36 10° WSW 17:29:31 66° NNW 17:36:33 10° NE visible
28 Jan 4.3 19:15:21 10° WNW 19:21:28 45° N 19:24:24 31° NE visible
28 Jan 4.5 21:06:50 10° NW 21:11:51 47° NNW 21:11:51 47° NNW visible
28 Jan 5.9 22:57:47 10° NW 22:59:18 18° NW 22:59:18 18° NW visible
29 Jan 4.3 18:30:18 10° W 18:36:20 47° N 18:41:10 20° NE visible
29 Jan 4.2 20:21:59 10° WNW 20:28:32 51° NNE 20:28:36 51° NNE visible
29 Jan 5.4 22:13:00 10° NW 22:16:03 30° NW 22:16:03 30° NW visible
30 Jan 4.1 17:45:16 10° W 17:51:14 51° NNW 17:57:56 11° ENE visible
30 Jan 4.3 19:37:04 10° WNW 19:43:25 47° N 19:45:23 39° NE visible
30 Jan 4.6 21:28:14 10° NW 21:32:49 46° NW 21:32:49 46° NW visible
30 Jan 6.1 23:19:12 10° NW 23:20:16 15° WNW 23:20:16 15° WNW visible
31 Jan 4.3 18:52:05 10° WNW 18:58:16 45° N 19:02:09 26° ENE visible
31 Jan 4.1 20:43:26 10° NW 20:49:36 61° N 20:49:36 61° N visible
31 Jan 5.6 22:34:21 10° NW 22:37:02 25° WNW 22:37:02 25° WNW visible
01 Feb 4.3 18:07:02 10° WNW 18:13:07 45° N 18:18:57 15° ENE visible
01 Feb 4.1 19:58:36 10° WNW 20:05:17 55° NNE 20:06:24 51° NE visible
01 Feb 4.9 21:49:34 10° NW 21:53:51 41° WNW 21:53:51 41° WNW visible
01 Feb 6.3 23:40:56 10° WNW 23:41:17 11° WNW 23:41:17 11° WNW visible
02 Feb 4.2 17:21:59 10° W 17:28:00 48° NNW 17:35:05 10° ENE visible
02 Feb 4.2 19:13:43 10° WNW 19:20:12 49° NNE 19:23:12 33° ENE visible
02 Feb 4.1 21:04:48 10° NW 21:10:39 66° NW 21:10:39 66° NW visible
02 Feb 5.8 22:55:52 10° WNW 22:58:06 20° WNW 22:58:06 20° WNW visible
03 Feb 4.3 18:28:47 10° WNW 18:35:04 46° N 18:40:03 20° ENE visible
03 Feb 3.8 20:20:01 10° NW 20:27:01 72° NNE 20:27:31 69° ENE visible
03 Feb 5.2 22:10:58 10° NW 22:14:58 34° WNW 22:14:58 34° WNW visible
04 Feb 4.3 17:43:46 10° WNW 17:49:55 45° N 17:56:56 11° ENE visible
04 Feb 4.0 19:35:13 10° NW 19:42:01 60° NNE 19:44:23 44° E visible
04 Feb 4.4 21:26:09 10° NW 21:31:50 56° W 21:31:50 56° W visible
04 Feb 6.1 23:17:48 10° WNW 23:19:18 15° WNW 23:19:18 15° WNW visible
05 Feb 4.1 18:50:22 10° WNW 18:56:58 53° NNE 19:01:18 26° E visible
05 Feb 3.8 20:41:22 10° NW 20:48:32 83° SW 20:48:46 82° S visible
05 Feb 5.6 22:32:36 10° WNW 22:36:14 25° W 22:36:14 25° W visible
